ARCHER ETAD-ETNN

Flight info

Callsign ARCHER
Flight time 0h 10m
Altitude 5000
Route DCT 502915N0064507E DCT
Aircraft EUFI/M-GILRTUVZ/S

Departure

Time 2026-05-07 16:27
Airport Spangdahlem Air Base (ETAD)

Arrival

Time 2026-05-07 16:38
Airport Nörvenich Air Base (ETNN)
Time Latitude Longitude Altitude Speed Heading
2026-05-07 16:13 49.97990 6.69462 1202 ft 0 kts 131°
2026-05-07 16:18 49.97986 6.69468 1183 ft 5 kts 133°
2026-05-07 16:19 49.97951 6.69452 1182 ft 8 kts 222°
2026-05-07 16:19 49.97903 6.69387 1179 ft 10 kts 224°
2026-05-07 16:19 49.97858 6.69375 1178 ft 8 kts 136°
2026-05-07 16:19 49.97811 6.69452 1180 ft 13 kts 133°
2026-05-07 16:20 49.97747 6.69555 1176 ft 13 kts 135°
2026-05-07 16:20 49.97684 6.69603 1180 ft 10 kts 219°
2026-05-07 16:20 49.97632 6.69524 1178 ft 12 kts 226°
2026-05-07 16:20 49.97563 6.69416 1175 ft 17 kts 224°
2026-05-07 16:21 49.97462 6.69261 1169 ft 21 kts 223°
2026-05-07 16:21 49.97360 6.69105 1168 ft 20 kts 225°
2026-05-07 16:21 49.97260 6.68954 1165 ft 20 kts 224°
2026-05-07 16:21 49.97161 6.68802 1161 ft 20 kts 225°
2026-05-07 16:22 49.97087 6.68687 1159 ft 14 kts 222°
2026-05-07 16:22 49.97020 6.68588 1156 ft 8 kts 226°
2026-05-07 16:22 49.97027 6.68534 1156 ft 6 kts 315°
2026-05-07 16:22 49.97031 6.68491 1155 ft 5 kts 223°
2026-05-07 16:23 49.97003 6.68449 1154 ft 6 kts 229°
2026-05-07 16:23 49.96977 6.68441 1154 ft 3 kts 133°
2026-05-07 16:23 49.96971 6.68452 1154 ft 0 kts 134°
2026-05-07 16:25 49.96952 6.68466 1154 ft 5 kts 176°
2026-05-07 16:25 49.96923 6.68436 1153 ft 7 kts 225°
2026-05-07 16:25 49.96884 6.68379 1151 ft 8 kts 223°
2026-05-07 16:26 49.96840 6.68308 1150 ft 10 kts 229°
2026-05-07 16:26 49.96795 6.68246 1149 ft 6 kts 205°
2026-05-07 16:26 49.96760 6.68272 1148 ft 6 kts 135°
2026-05-07 16:26 49.96728 6.68326 1148 ft 7 kts 127°
2026-05-07 16:27 49.96710 6.68388 1148 ft 6 kts 93°
2026-05-07 16:27 49.96717 6.68417 1148 ft 0 kts 45°
2026-05-07 16:27 49.96927 6.68739 1156 ft 139 kts 44°
2026-05-07 16:27 49.98008 6.70402 1926 ft 287 kts 44°
2026-05-07 16:28 49.99607 6.72758 3835 ft 315 kts 43°
2026-05-07 16:28 50.01472 6.74548 5043 ft 317 kts
2026-05-07 16:28 50.03711 6.74776 5254 ft 323 kts
2026-05-07 16:28 50.05954 6.74759 5219 ft 320 kts 359°
2026-05-07 16:29 50.08170 6.74620 5096 ft 318 kts 357°
2026-05-07 16:29 50.10376 6.74428 5051 ft 331 kts 356°
2026-05-07 16:29 50.12989 6.74137 5059 ft 378 kts 355°
2026-05-07 16:29 50.15581 6.73805 4322 ft 366 kts 355°
2026-05-07 16:30 50.18104 6.73507 4001 ft 362 kts 359°
2026-05-07 16:30 50.20626 6.73564 3882 ft 362 kts
2026-05-07 16:30 50.23144 6.73553 4148 ft 363 kts 359°
2026-05-07 16:30 50.25656 6.73545 4218 ft 361 kts
2026-05-07 16:31 50.28179 6.73691 4194 ft 365 kts
2026-05-07 16:31 50.30672 6.73843 4191 ft 358 kts
2026-05-07 16:31 50.33191 6.73968 4174 ft 361 kts
2026-05-07 16:31 50.35708 6.74015 4165 ft 362 kts
2026-05-07 16:32 50.38242 6.74020 4148 ft 361 kts
2026-05-07 16:32 50.40748 6.74113 4118 ft 360 kts
2026-05-07 16:32 50.43257 6.74300 4091 ft 356 kts
2026-05-07 16:32 50.45777 6.74438 4078 ft 359 kts 360°
2026-05-07 16:33 50.48285 6.74410 4091 ft 357 kts 359°
2026-05-07 16:33 50.50788 6.74374 4096 ft 359 kts 359°
2026-05-07 16:33 50.53295 6.74353 4133 ft 360 kts 359°
2026-05-07 16:33 50.55798 6.74086 4114 ft 356 kts 349°
2026-05-07 16:34 50.58212 6.73128 3977 ft 362 kts 349°
2026-05-07 16:34 50.60687 6.72463 3639 ft 359 kts 351°
2026-05-07 16:34 50.63159 6.71974 3197 ft 356 kts 354°
2026-05-07 16:34 50.65618 6.71698 2796 ft 353 kts 357°
2026-05-07 16:35 50.68079 6.71489 2742 ft 350 kts 356°
2026-05-07 16:35 50.70544 6.71215 2675 ft 358 kts 355°
2026-05-07 16:35 50.73047 6.70857 2519 ft 381 kts 355°
2026-05-07 16:35 50.75482 6.70535 1881 ft 312 kts 354°
2026-05-07 16:36 50.77554 6.70040 1857 ft 280 kts 338°
2026-05-07 16:36 50.79318 6.68367 1937 ft 319 kts 328°
2026-05-07 16:36 50.81225 6.66810 1930 ft 295 kts 335°
2026-05-07 16:36 50.83125 6.65459 1948 ft 314 kts 337°
2026-05-07 16:37 50.84558 6.65918 1944 ft 163 kts 73°
2026-05-07 16:37 50.84929 6.67791 1513 ft 234 kts 70°
2026-05-07 16:37 50.84471 6.69295 841 ft 181 kts 200°
2026-05-07 16:37 50.83669 6.67867 381 ft 164 kts 249°
2026-05-07 16:38 50.83289 6.66413 353 ft 120 kts 246°
2026-05-07 16:38 50.82989 6.65317 366 ft 97 kts 246°
2026-05-07 16:38 50.82805 6.64637 380 ft 48 kts 245°
2026-05-07 16:38 50.82710 6.64315 383 ft 20 kts 232°
2026-05-07 16:39 50.82613 6.64349 386 ft 14 kts 130°
2026-05-07 16:39 50.82609 6.64483 386 ft 13 kts 73°
2026-05-07 16:39 50.82641 6.64618 384 ft 14 kts 71°
2026-05-07 16:39 50.82674 6.64764 382 ft 15 kts 69°
2026-05-07 16:40 50.82712 6.64931 379 ft 17 kts 68°
2026-05-07 16:40 50.82756 6.65115 376 ft 18 kts 66°
2026-05-07 16:40 50.82801 6.65309 372 ft 19 kts 69°
2026-05-07 16:40 50.82850 6.65514 368 ft 20 kts 73°
2026-05-07 16:41 50.82900 6.65730 365 ft 22 kts 70°
2026-05-07 16:41 50.82956 6.65956 362 ft 22 kts 70°
2026-05-07 16:41 50.83015 6.66184 356 ft 22 kts 69°
2026-05-07 16:41 50.83077 6.66410 353 ft 23 kts 66°
2026-05-07 16:42 50.83141 6.66644 349 ft 24 kts 66°
2026-05-07 16:42 50.83207 6.66889 335 ft 21 kts 65°
2026-05-07 16:42 50.83215 6.67043 333 ft 14 kts 107°
2026-05-07 16:42 50.83194 6.67179 328 ft 11 kts 75°
2026-05-07 16:43 50.83222 6.67295 331 ft 11 kts 70°
2026-05-07 16:43 50.83247 6.67407 330 ft 10 kts 70°
2026-05-07 16:43 50.83270 6.67500 330 ft 7 kts 49°
2026-05-07 16:43 50.83296 6.67498 330 ft 0 kts 339°
2026-05-07 16:44 50.83299 6.67496 332 ft 0 kts 339°